This is the latest recevied weather packets stored in our database for station/object PY4BN-13. If no packets are shown the sender has not sent any weather packets the latest 10 day(s).
| Time | Temp. | Humidity | Pressure | Rain* | Wind** | Luminosity | Snow |
|---|---|---|---|---|---|---|---|
| 1777554000 | 27.22° C | 48% | 909.4 hPa | - | - | - | - |
| 1777553100 | 27.22° C | 46% | 909.5 hPa | - | - | - | - |
| 1777552200 | 27.22° C | 48% | 909.5 hPa | - | - | - | - |
| 1777551300 | 27.22° C | 48% | 909.5 hPa | - | - | - | - |
| 1777550400 | 27.22° C | 47% | 909.3 hPa | - | - | - | - |
| 1777549500 | 27.22° C | 47% | 909.1 hPa | - | - | - | - |
| 1777548601 | 27.22° C | 47% | 909.2 hPa | - | - | - | - |
| 1777547700 | 27.22° C | 47% | 909.1 hPa | - | - | - | - |
| 1777546800 | 27.22° C | 46% | 909 hPa | - | - | - | - |
| 1777545900 | 27.22° C | 46% | 909 hPa | - | - | - | - |
| 1777545000 | 27.22° C | 49% | 908.9 hPa | - | - | - | - |
| 1777544100 | 27.22° C | 50% | 908.8 hPa | - | - | - | - |
| 1777543200 | 27.22° C | 50% | 908.6 hPa | - | - | - | - |
| 1777542300 | 26.67° C | 50% | 908.3 hPa | - | - | - | - |
| 1777541400 | 27.22° C | 50% | 908.1 hPa | - | - | - | - |
| 1777540500 | 26.67° C | 51% | 907.9 hPa | - | - | - | - |
| 1777539600 | 27.22° C | 50% | 907.7 hPa | - | - | - | - |
| 1777538700 | 26.67° C | 51% | 907.4 hPa | - | - | - | - |
| 1777537800 | 27.22° C | 51% | 907.2 hPa | - | - | - | - |
| 1777536900 | 27.22° C | 51% | 907 hPa | - | - | - | - |
| 1777536000 | 27.22° C | 51% | 906.7 hPa | - | - | - | - |
| 1777535100 | 27.22° C | 51% | 906.5 hPa | - | - | - | - |
| 1777534200 | 27.22° C | 51% | 906.4 hPa | - | - | - | - |
| 1777533300 | 27.22° C | 51% | 906.5 hPa | - | - | - | - |
| 1777532400 | 27.22° C | 51% | 906.4 hPa | - | - | - | - |
* Rain since midnight (hover to see other rain measurements)
** Current wind speed in m/s (hover to see current wind gust speed)